Чу

Казахстан     43°36′00″N   73°45′00″E
темп.,
°C
ветер,
м/с
пор.,
м/с
влажн.,
%
обл.,
%
осадки,
мм/ч
давл.,
гПа
погр.,
м
20 января, ср
ср2000:00+2ююв3475100 0.0 101840
03:00+2ююв4578100 0.0 101969
06:00+3юз1282100 0.0 102222
09:00+2ю5797100 1.1 1023115
12:00+3ююв610100100 1.1 1024179
15:00+2юв57100100 0.0 1024138
18:00+1ююв3399100 0.0 102669
21:00+1юв1292100 0.0 102522
21 января, чт
чт2100:00+1ссв1280100 0.0 102322
03:00+1сз2375100 0.0 102122
06:00−1юз1281100 0.0 101922
09:00−1ююв3478100 0.0 101736
12:00+1юв2386100 0.0 101364
15:00+2всв1193100 0.0 100922
18:00+1юв1272100 0.0 100822
21:00+1ююв3471100 0.0 100732
22 января, пт
пт2200:00+1ююв4573100 0.0 100559
03:00+1ю3469100 0.0 100639
06:00−2з4687100 0.0 1008111
09:00−1зюз41097100 0.3 1015593
12:00−4з91492100 2.6 1021783
15:00−5зсз81193100 2.6 1028861
18:00−6з5894100 3.7 1033588
21:00−7з4695100 1.2 1037499
23 января, сб
сб2300:00−8з1186100 1.7 103821
03:00−10вюв1287100 0.0 103821
06:00−9ююв4694100 0.1 1037143
09:00−9юв4791100 0.0 1038148
12:00−7ююв3486100 0.1 1037240
15:00−5ю3485100 0.1 1036449
18:00−6ююв6889100 0.4 1036272
21:00−6ююв71191100 0.9 1037354
24 января, вс
вс2400:00−6ююз51385100 1.7 1038513
03:00−7зсз2695100 0.7 1042286
06:00−9ююз3395100 0.8 104470
09:00−9ююв359397 0.1 1046104
12:00−6ююв458975 0.1 1044225
15:00−3юв23836 0.0 1041259
18:00−7св23823 0.0 104121
21:00−9ссв228287 0.0 104121